Flag Weather past 2 weeks in Arequipa, Arequipa, Peru

Now
55 °F

Clear.


Feels Like: 55 °F
Forecast: 49 / 73 °F
Wind: 5 mph from North

Location: Arequipa Airport

Current Time: Nov 25, 2014 at 10:19:31 PM

Latest Report: Nov 25, 2014 at 10:00 PM


Visibility: 10 mi

Pressure: 30.33 "Hg

Humidity: 21%

Dew point: 16 °F

Location of ArequipaLocation

Historic Weather in Arequipa — Graph

°F

Arequipa temperature yesterday

Maximum temperature yesterday: 72 °F (at 12:00 PM)
Minimum temperature yesterday: 50 °F (at 4:00 AM)
Average temperature yesterday: 60 °F

Past Weeks' High & Low Weather Summary

 TemperatureHumidityPressure
High72 °F (Nov 18, 2:00 PM)87% (Nov 22, 3:00 AM)30.39 "Hg (Nov 22, 3:00 AM)
Low45 °F (Nov 13, 3:00 AM)9% (Nov 21, 9:00 AM)30.24 "Hg (Nov 11, 3:00 PM)
Average59 °F38%30.30 "Hg
* Reported Nov 10 9:00 PM — Nov 25 9:00 PM, Arequipa, Weather by CustomWeather, © 2014

Note: Actual official high and low records may vary slightly from our data, if they occured in-between our weather recording intervals... More about our weather records

Advertising

Arequipa weather history for previous 24 hours

 ConditionsComfort  
Time TempWeatherWind HumidityBarometerVisibility
9:00 PM
Nov 25
55 °FClear.3 mph38%30.33 "Hg10 mi
8:00 PM57 °FClear.2 mph39%30.33 "Hg10 mi
7:00 PM59 °FClear.5 mph31%30.33 "Hg10 mi
6:00 PM63 °FPassing clouds.6 mph27%30.30 "HgN/A
5:00 PM64 °FPassing clouds.7 mph26%30.30 "HgN/A
4:00 PM64 °FSunny.10 mph30%30.30 "Hg10 mi
3:00 PM66 °FPassing clouds.14 mph30%30.27 "HgN/A
2:00 PM68 °FPassing clouds.16 mph23%30.27 "HgN/A
1:00 PM70 °FPassing clouds.13 mph18%30.30 "HgN/A
12:00 PM70 °FPassing clouds.12 mph18%30.30 "HgN/A
11:00 AM68 °FPassing clouds.9 mph17%30.33 "HgN/A
10:00 AM68 °FPassing clouds.8 mph13%30.33 "HgN/A
9:00 AM66 °FPassing clouds.7 mph13%30.33 "HgN/A
8:00 AM64 °FPassing clouds.6 mph14%30.33 "HgN/A
7:00 AM63 °FSunny.9 mph12%30.30 "Hg10 mi
6:00 AM52 °FSunny.8 mph19%N/A10 mi
5:00 AM46 °FPassing clouds.5 mph25%30.27 "HgN/A
4:00 AM52 °FClear.9 mph17%30.24 "Hg10 mi
3:00 AM54 °FClear.10 mph18%30.24 "Hg10 mi
2:00 AM55 °FPassing clouds.6 mph19%30.27 "HgN/A
1:00 AM52 °FPassing clouds.5 mph24%30.27 "HgN/A
12:00 AM54 °FClear.2 mph26%30.30 "Hg10 mi
11:00 PM
Nov 24
54 °FClear.3 mph30%30.33 "Hg10 mi
10:00 PM55 °FClear.9 mph21%30.33 "Hg10 mi
Weather by CustomWeather, © 2014

See weather overviewHow to use our weather pages